Weather in Kuvak-Nikolskoye

Russia / Penza Oblast     53°37′05″N   43°30′27″E
temp.,
°C
wind,
m/s
gust,
m/s
humid.,
%
clouds,
%
prec.,
mm/h
press.,
hPa
HPBL,
m
15 may, sat
sat1500:00+17sse41286100 0.0 1014201
03:00+16sse51481100 0.0 1014262
06:00+16s61573100 0.0 1014342
09:00+20s71364100 0.0 1014533
12:00+24s7135416 0.0 1014996
15:00+25ssw6125793 0.0 10141574
18:00+22s51167100 0.0 1014391
21:00+17s36835 0.0 101477
16 may, sun
sun1600:00+16sw228948 0.1 101526
03:00+16w229181 0.1 101514
06:00+17nnw0085100 0.0 101549
09:00+21ese1169100 0.0 1016466
12:00+24sse2463100 0.0 10161278
15:00+25s46505 0.6 10151709
18:00+22s37656 0.0 1015204
21:00+18s22718 0.0 101515
17 may, mon
mon1700:00+16sse12726 0.0 101611
03:00+15e227718 0.0 101615
06:00+17ese3678100 0.0 1016120
09:00+23se575581 0.0 1016394
12:00+25sse694398 0.0 1016930
15:00+26sse585019 0.0 1015909
18:00+23se4964100 0.0 1015254
21:00+18se4868100 0.0 1015112
18 may, tue
tue1800:00+17se41165100 0.0 1015155
03:00+16se41356100 0.0 1014193
06:00+16se41266100 0.0 1014208
09:00+21se51056100 0.0 1013353
12:00+26se6104194 0.0 1012845
15:00+27se7124977 0.0 10121152
18:00+23se614564 0.0 1011397
21:00+20ese6175733 0.0 1011320
19 may, wed
wed1900:00+19se71946100 0.0 1010421
03:00+19se71747100 0.0 1010397
06:00+16se4117088 0.0 1010261
09:00+21sse6136089 0.0 1009619
12:00+25sse8144964 0.0 10081475
15:00+21ssw4873100 0.0 1009768
18:00+20ssw610755 0.9 1008735
21:00+16sw6128799 1.9 1010453